�������l�o���
Date,Time,MP-1(��Sv/h),MP-2(��Sv/h),MP-3(��Sv/h),MP-4(��Sv/h),MP-5(��Sv/h),MP-6(��Sv/h),MP-7(��Sv/h),MP-8(��Sv/h),����,����(m/s),���J
2021/09/14,00:00,0.598,0.893,0.559,1.084,0.767,0.363,0.629,0.587,�k��,1.9,��
2021/09/14,00:10,0.597,0.895,0.558,1.083,0.768,0.363,0.629,0.587,�k�k��,1.4,��
2021/09/14,00:20,0.597,0.894,0.561,1.085,0.767,0.364,0.628,0.585,�k�k��,1.5,��
2021/09/14,00:30,0.600,0.894,0.560,1.084,0.767,0.363,0.627,0.587,�k��,2.0,��
2021/09/14,00:40,0.597,0.893,0.559,1.084,0.768,0.364,0.627,0.587,���k��,1.9,��
2021/09/14,00:50,0.597,0.894,0.560,1.084,0.766,0.362,0.629,0.587,�k��,1.7,��
2021/09/14,01:00,0.598,0.894,0.561,1.084,0.766,0.364,0.630,0.587,�k�k��,1.5,��
2021/09/14,01:10,0.599,0.893,0.561,1.083,0.767,0.364,0.628,0.586,�k�k��,1.1,��
2021/09/14,01:20,0.597,0.893,0.560,1.082,0.768,0.362,0.628,0.586,�k�k��,0.9,��
2021/09/14,01:30,0.597,0.894,0.560,1.084,0.768,0.362,0.628,0.588,�k�k��,0.6,��
2021/09/14,01:40,0.598,0.894,0.562,1.083,0.770,0.364,0.627,0.588,�k�k��,1.2,��
2021/09/14,01:50,0.597,0.895,0.560,1.085,0.766,0.363,0.628,0.586,�k,0.6,��
2021/09/14,02:00,0.597,0.895,0.560,1.084,0.768,0.363,0.627,0.588,�k�k��,1.5,��
2021/09/14,02:10,0.597,0.893,0.560,1.083,0.768,0.363,0.628,0.588,�k�k��,1.7,��
2021/09/14,02:20,0.597,0.892,0.561,1.083,0.767,0.365,0.627,0.588,�k�k��,1.7,��
2021/09/14,02:30,0.598,0.894,0.562,1.085,0.767,0.363,0.628,0.587,�k�k��,2.0,��
2021/09/14,02:40,0.597,0.894,0.562,1.084,0.768,0.365,0.627,0.589,�k,1.5,��
2021/09/14,02:50,0.597,0.894,0.563,1.085,0.767,0.363,0.629,0.588,�k,2.0,��
2021/09/14,03:00,0.598,0.891,0.562,1.083,0.766,0.362,0.627,0.587,�k,2.3,��
2021/09/14,03:10,0.599,0.894,0.562,1.084,0.768,0.363,0.627,0.588,�k,2.0,��
2021/09/14,03:20,0.598,0.894,0.561,1.083,0.767,0.364,0.628,0.586,�k,2.6,��
2021/09/14,03:30,0.598,0.894,0.564,1.086,0.766,0.363,0.627,0.588,�k,2.6,��
2021/09/14,03:40,0.601,0.891,0.562,1.083,0.767,0.363,0.627,0.588,�k,1.7,��
2021/09/14,03:50,0.597,0.894,0.561,1.085,0.768,0.363,0.630,0.588,�k�k��,1.9,��
2021/09/14,04:00,0.598,0.893,0.563,1.085,0.767,0.364,0.627,0.588,�k�k��,1.7,��
2021/09/14,04:10,0.596,0.894,0.564,1.085,0.767,0.365,0.628,0.588,�k�k��,1.9,��
2021/09/14,04:20,0.599,0.895,0.559,1.084,0.767,0.364,0.628,0.589,�k�k��,1.5,��
2021/09/14,04:30,0.596,0.894,0.562,1.084,0.768,0.363,0.628,0.587,�k��,1.5,��
2021/09/14,04:40,0.596,0.894,0.563,1.082,0.768,0.363,0.627,0.587,�k��,1.5,��
2021/09/14,04:50,0.597,0.894,0.562,1.083,0.769,0.363,0.627,0.586,�k�k��,1.5,��
2021/09/14,05:00,0.599,0.892,0.563,1.084,0.766,0.362,0.628,0.588,�k�k��,1.5,��
2021/09/14,05:10,0.597,0.892,0.563,1.083,0.768,0.363,0.630,0.588,�k�k��,2.0,��
2021/09/14,05:20,0.598,0.895,0.563,1.084,0.767,0.364,0.628,0.588,�k�k��,2.5,��
2021/09/14,05:30,0.597,0.894,0.565,1.084,0.767,0.364,0.629,0.590,�k�k��,2.0,��
2021/09/14,05:40,0.597,0.894,0.565,1.084,0.768,0.365,0.627,0.588,�k�k��,2.9,��
2021/09/14,05:50,0.597,0.894,0.563,1.082,0.767,0.362,0.625,0.588,�k�k��,3.5,��
2021/09/14,06:00,0.599,0.894,0.564,1.084,0.768,0.363,0.627,0.587,�k�k��,3.0,��
2021/09/14,06:10,0.599,0.893,0.561,1.085,0.768,0.363,0.627,0.588,�k�k��,1.7,��
2021/09/14,06:20,0.599,0.895,0.563,1.084,0.768,0.364,0.629,0.590,�k�k��,3.1,��
2021/09/14,06:30,0.598,0.894,0.561,1.086,0.767,0.361,0.627,0.587,�k��,3.6,��
2021/09/14,06:40,0.600,0.894,0.564,1.084,0.768,0.362,0.629,0.588,�k�k��,3.2,��
2021/09/14,06:50,0.598,0.892,0.563,1.083,0.766,0.363,0.627,0.588,�k�k��,3.6,��
2021/09/14,07:00,0.598,0.895,0.563,1.087,0.767,0.364,0.627,0.588,�k�k��,3.1,��
2021/09/14,07:10,0.597,0.895,0.563,1.086,0.768,0.363,0.628,0.588,�k��,3.6,��
2021/09/14,07:20,0.598,0.895,0.563,1.086,0.767,0.363,0.626,0.589,�k��,3.4,��
2021/09/14,07:30,0.599,0.895,0.562,1.085,0.769,0.363,0.626,0.588,�k�k��,3.2,��
2021/09/14,07:40,0.599,0.894,0.562,1.085,0.769,0.363,0.626,0.588,�k�k��,3.3,��
2021/09/14,07:50,0.599,0.894,0.566,1.083,0.769,0.363,0.628,0.587,�k�k��,3.5,��
2021/09/14,08:00,0.599,0.895,0.565,1.086,0.765,0.362,0.625,0.587,�k�k��,3.4,��
2021/09/14,08:10,0.599,0.894,0.564,1.084,0.767,0.362,0.624,0.588,�k�k��,3.2,��
2021/09/14,08:20,0.598,0.893,0.564,1.084,0.768,0.362,0.626,0.587,�k,2.0,��
2021/09/14,08:30,0.597,0.893,0.565,1.085,0.767,0.362,0.625,0.587,�k�k��,2.5,��
2021/09/14,08:40,0.597,0.894,0.564,1.087,0.766,0.360,0.627,0.587,�k,2.3,��
2021/09/14,08:50,0.598,0.894,0.563,1.086,0.767,0.362,0.625,0.586,�k,2.0,��
2021/09/14,09:00,0.599,0.890,0.563,1.087,0.766,0.361,0.626,0.587,�k,2.2,��
2021/09/14,09:10,0.597,0.892,0.562,1.087,0.766,0.362,0.628,0.586,�k�k��,2.3,��
2021/09/14,09:20,0.598,0.892,0.561,1.086,0.767,0.362,0.626,0.585,�k,2.2,��
2021/09/14,09:30,0.596,0.888,0.561,1.085,0.767,0.362,0.627,0.586,�k��,2.8,��
2021/09/14,09:40,0.597,0.891,0.560,1.087,0.763,0.363,0.629,0.585,�k��,2.6,��
2021/09/14,09:50,0.598,0.893,0.561,1.086,0.767,0.363,0.628,0.584,���k��,2.6,��
2021/09/14,10:00,0.598,0.892,0.561,1.086,0.766,0.363,0.628,0.584,���k��,2.2,��
2021/09/14,10:10,0.598,0.891,0.562,1.088,0.766,0.363,0.626,0.585,��,1.7,��
2021/09/14,10:20,0.597,0.893,0.562,1.087,0.769,0.362,0.627,0.586,���k��,2.2,��
2021/09/14,10:30,0.599,0.894,0.562,1.087,0.768,0.363,0.628,0.586,���k��,2.0,��
2021/09/14,10:40,0.599,0.892,0.563,1.086,0.768,0.361,0.628,0.587,���k��,3.4,��
2021/09/14,10:50,0.597,0.892,0.561,1.087,0.768,0.363,0.630,0.587,���k��,3.4,��
2021/09/14,11:00,0.598,0.892,0.563,1.087,0.769,0.361,0.627,0.587,���k��,3.5,��
2021/09/14,11:10,0.601,0.893,0.564,1.088,0.768,0.363,0.628,0.586,���k��,3.3,��
2021/09/14,11:20,0.599,0.894,0.563,1.087,0.770,0.363,0.628,0.586,�k��,3.2,��
2021/09/14,11:30,0.599,0.893,0.562,1.087,0.770,0.363,0.627,0.587,�k��,3.8,��
2021/09/14,11:40,0.600,0.896,0.561,1.085,0.767,0.363,0.629,0.586,�k��,3.6,��
2021/09/14,11:50,0.600,0.899,0.562,1.086,0.768,0.363,0.628,0.587,�k��,3.0,��
2021/09/14,12:00,0.599,0.896,0.562,1.087,0.768,0.363,0.628,0.586,�k��,3.4,��
2021/09/14,12:10,0.599,0.898,0.562,1.086,0.770,0.363,0.627,0.587,�k��,3.1,��
2021/09/14,12:20,0.600,0.896,0.564,1.084,0.767,0.363,0.628,0.585,�k��,3.1,��
2021/09/14,12:30,0.599,0.896,0.564,1.085,0.769,0.363,0.629,0.587,�k��,3.2,��
2021/09/14,12:40,0.599,0.897,0.564,1.085,0.769,0.364,0.630,0.587,���k��,3.3,��
2021/09/14,12:50,0.599,0.897,0.564,1.086,0.768,0.362,0.628,0.588,�k��,2.0,��
2021/09/14,13:00,0.600,0.897,0.562,1.086,0.771,0.363,0.628,0.587,�k��,2.6,��
2021/09/14,13:10,0.601,0.897,0.564,1.083,0.769,0.364,0.629,0.587,���k��,2.6,��
2021/09/14,13:20,0.599,0.895,0.564,1.086,0.769,0.362,0.630,0.587,�k�k��,3.0,��
2021/09/14,13:30,0.601,0.897,0.563,1.088,0.771,0.363,0.628,0.586,�k��,2.6,��
2021/09/14,13:40,0.600,0.896,0.564,1.087,0.770,0.363,0.628,0.587,���k��,2.6,��
2021/09/14,13:50,0.601,0.898,0.563,1.086,0.771,0.364,0.628,0.587,��,2.3,��
2021/09/14,14:00,0.600,0.896,0.563,1.086,0.771,0.363,0.628,0.587,���k��,2.5,��
2021/09/14,14:10,0.601,0.896,0.563,1.086,0.769,0.363,0.630,0.587,���k��,2.6,��
2021/09/14,14:20,0.600,0.898,0.564,1.087,0.771,0.362,0.629,0.587,���k��,2.8,��
2021/09/14,14:30,0.602,0.897,0.565,1.089,0.771,0.362,0.627,0.587,���k��,1.5,��
2021/09/14,14:40,0.600,0.901,0.564,1.088,0.771,0.363,0.629,0.585,���k��,2.3,��
2021/09/14,14:50,0.600,0.899,0.564,1.088,0.769,0.363,0.629,0.587,���k��,2.0,��
2021/09/14,15:00,0.599,0.900,0.564,1.087,0.769,0.364,0.629,0.588,���k��,1.7,��
2021/09/14,15:10,0.599,0.900,0.564,1.090,0.770,0.363,0.628,0.586,��,2.0,��
2021/09/14,15:20,0.600,0.900,0.564,1.087,0.771,0.362,0.630,0.588,���k��,2.3,��
2021/09/14,15:30,0.600,0.899,0.564,1.089,0.771,0.363,0.629,0.588,�k��,2.2,��
2021/09/14,15:40,0.600,0.900,0.564,1.089,0.772,0.363,0.629,0.588,���k��,1.5,��
2021/09/14,15:50,0.600,0.899,0.564,1.089,0.772,0.363,0.629,0.588,���k��,2.0,��
2021/09/14,16:00,0.599,0.898,0.564,1.091,0.770,0.365,0.627,0.586,���k��,2.3,��
2021/09/14,16:10,0.599,0.902,0.564,1.090,0.769,0.364,0.629,0.587,���k��,2.2,��
2021/09/14,16:20,0.600,0.902,0.563,1.088,0.772,0.364,0.627,0.587,���k��,1.9,��
2021/09/14,16:30,0.600,0.902,0.565,1.091,0.769,0.365,0.628,0.587,�k��,1.9,��
2021/09/14,16:40,0.602,0.901,0.567,1.091,0.770,0.364,0.629,0.587,��,2.0,��
2021/09/14,16:50,0.601,0.904,0.563,1.091,0.770,0.363,0.628,0.588,��,1.7,��
2021/09/14,17:00,0.600,0.903,0.565,1.089,0.771,0.366,0.628,0.588,��,1.4,��
2021/09/14,17:10,0.600,0.902,0.566,1.089,0.771,0.365,0.629,0.588,��,2.0,��
2021/09/14,17:20,0.602,0.901,0.566,1.088,0.772,0.363,0.629,0.589,��,1.2,��
2021/09/14,17:30,0.602,0.901,0.566,1.090,0.771,0.363,0.630,0.588,���쓌,1.5,��
2021/09/14,17:40,0.599,0.903,0.565,1.091,0.771,0.363,0.629,0.589,���k��,1.5,��
2021/09/14,17:50,0.600,0.903,0.565,1.090,0.770,0.364,0.630,0.589,���k��,1.2,��
2021/09/14,18:00,0.602,0.904,0.565,1.092,0.771,0.364,0.629,0.589,��,0.8,��
2021/09/14,18:10,0.600,0.904,0.566,1.089,0.772,0.364,0.629,0.590,���k��,0.9,��
2021/09/14,18:20,0.601,0.902,0.566,1.088,0.774,0.365,0.628,0.588,�k��,0.9,��
2021/09/14,18:30,0.602,0.903,0.565,1.091,0.772,0.365,0.631,0.588,-,CALM,��
2021/09/14,18:40,0.602,0.902,0.565,1.092,0.774,0.364,0.628,0.590,�k��,0.9,��
2021/09/14,18:50,0.600,0.901,0.567,1.091,0.772,0.364,0.630,0.591,-,CALM,��
2021/09/14,19:00,0.601,0.902,0.566,1.090,0.772,0.365,0.628,0.590,���쓌,1.1,��
2021/09/14,19:10,0.602,0.903,0.567,1.089,0.774,0.365,0.630,0.589,��,0.8,��
2021/09/14,19:20,0.601,0.903,0.565,1.091,0.771,0.365,0.630,0.588,�쓌,0.8,��
2021/09/14,19:30,0.601,0.901,0.566,1.091,0.773,0.364,0.630,0.590,�쓌,0.9,��
2021/09/14,19:40,0.602,0.902,0.568,1.090,0.773,0.365,0.629,0.589,��쐼,0.6,��
2021/09/14,19:50,0.602,0.901,0.567,1.088,0.772,0.364,0.630,0.590,��쐼,0.6,��
2021/09/14,20:00,0.602,0.902,0.565,1.090,0.773,0.364,0.629,0.588,�쐼,0.8,��
2021/09/14,20:10,0.602,0.902,0.567,1.089,0.775,0.364,0.629,0.589,��,0.6,��
2021/09/14,20:20,0.600,0.902,0.566,1.091,0.775,0.363,0.629,0.590,-,CALM,��
2021/09/14,20:30,0.602,0.901,0.567,1.091,0.775,0.364,0.630,0.589,-,CALM,��
2021/09/14,20:40,0.602,0.901,0.565,1.090,0.773,0.364,0.630,0.590,�k��,0.9,��
2021/09/14,20:50,0.602,0.901,0.565,1.091,0.774,0.364,0.629,0.588,���k��,1.2,��
2021/09/14,21:00,0.603,0.903,0.565,1.092,0.773,0.363,0.629,0.588,�k��,1.2,��
2021/09/14,21:10,0.602,0.901,0.566,1.089,0.774,0.365,0.629,0.589,���k��,0.9,��
2021/09/14,21:20,0.600,0.901,0.566,1.090,0.774,0.364,0.630,0.589,��쐼,0.8,��
2021/09/14,21:30,0.603,0.899,0.567,1.090,0.774,0.364,0.629,0.589,��쐼,0.6,��
2021/09/14,21:40,0.603,0.902,0.565,1.094,0.776,0.363,0.629,0.588,��쐼,1.4,��
2021/09/14,21:50,0.602,0.902,0.566,1.091,0.772,0.365,0.630,0.589,�쐼,1.1,��
2021/09/14,22:00,0.603,0.901,0.566,1.091,0.773,0.364,0.629,0.589,��,0.9,��
2021/09/14,22:10,0.602,0.901,0.565,1.091,0.774,0.365,0.631,0.590,���k��,1.7,��
2021/09/14,22:20,0.602,0.901,0.566,1.090,0.774,0.363,0.630,0.590,�k�k��,1.9,��
2021/09/14,22:30,0.602,0.903,0.566,1.092,0.774,0.365,0.631,0.588,�k��,3.1,��
2021/09/14,22:40,0.602,0.902,0.567,1.092,0.775,0.365,0.630,0.590,�k��,3.2,��
2021/09/14,22:50,0.602,0.901,0.565,1.092,0.773,0.364,0.631,0.590,�k��,3.2,��
2021/09/14,23:00,0.602,0.902,0.567,1.091,0.773,0.365,0.630,0.590,�k�k��,3.1,��
2021/09/14,23:10,0.603,0.904,0.567,1.091,0.774,0.364,0.629,0.590,�k��,3.9,��
2021/09/14,23:20,0.603,0.902,0.567,1.090,0.774,0.365,0.629,0.589,�k��,3.7,��
2021/09/14,23:30,0.603,0.901,0.565,1.091,0.774,0.364,0.629,0.589,�k��,4.1,��
2021/09/14,23:40,0.601,0.899,0.569,1.092,0.775,0.363,0.629,0.589,�k��,3.5,��
2021/09/14,23:50,0.600,0.901,0.566,1.089,0.773,0.365,0.630,0.590,�k�k��,2.6,�L
